Location: Houston
(29.7630°N, 95.3630°W)
Time: 02:06:04
(UTC-06:00)

Amateur Radio Satellites - All Passes

Search period start: 18 January 2017 01:36
Search period end: 19 January 2017 01:36
Location: Houston, 29.7630°N, 95.3630°W

Satellite Date Start Highest point End Downlink Frequencies (MHz)
Time Altitude Azimuth
PHONESAT 2.4 18 Jan 01:44:47 01:46:51 28° 145° (SE) 01:48:54 2401.200-2431.200
BEESAT 18 Jan 01:45:32 01:49:35 29° 71° (ENE) 01:53:39 436.000
SWISSCUBE 18 Jan 01:46:38 01:50:52 33° 72° (ENE) 01:55:08 437.505
Cosmos 2504 18 Jan 02:01:59 02:08:31 34° 78° (ENE) 02:14:51 435.465 / 435.565
BEESAT 2 18 Jan 02:07:45 02:09:44 13° 53° (NE) 02:11:43 435.950
MOZHAYETS 4 18 Jan 02:08:44 02:10:37 12° 68° (ENE) 02:12:30
AIST 1 18 Jan 02:16:28 02:20:27 40° 268° (W) 02:24:25
PCSat 18 Jan 02:18:58 02:23:08 22° 303° (WNW) 02:27:19 145.827
AUBIESAT-1 18 Jan 02:30:09 02:31:38 12° 65° (ENE) 02:33:05 437.475
TISAT 1 18 Jan 02:30:30 02:32:04 12° 266° (W) 02:33:38 437.305
ITUPSAT 1 18 Jan 02:45:53 02:50:32 57° 259° (W) 02:55:14 437.325
YUBILEINY 18 Jan 02:49:33 02:58:02 55° 270° (W) 03:06:26 435.215
CUSAT 1 18 Jan 02:56:17 02:59:50 24° 85° (E) 03:04:11 437.405
Gurwin Techsat 1B 18 Jan 03:01:38 03:06:22 34° 289° (WNW) 03:11:06 435.225
BEESAT 3 18 Jan 03:05:15 03:09:03 45° 247° (WSW) 03:12:51 437.485
KKS-1 18 Jan 03:07:46 03:10:47 18° 70° (ENE) 03:13:49 437.445
AO-7 18 Jan 03:10:28 03:18:00 36° 100° (E) 03:25:26 29.400- 29.500
Oscar 19 18 Jan 03:12:09 03:14:32 13° 294° (WNW) 03:16:56 437.125/150
RS-15 18 Jan 03:15:59 03:22:11 15° 329° (NNW) 03:28:31 29.354- 29.394
PHONESAT 2.4 18 Jan 03:19:14 03:21:01 19° 338° (NNW) 03:22:49 2401.200-2431.200
M-CUBED/EXP-1 PRIME 18 Jan 03:21:58 03:26:30 67° 72° (ENE) 03:30:47 437.505
BEESAT 18 Jan 03:23:43 03:27:17 21° 264° (W) 03:30:51 436.000
SWISSCUBE 18 Jan 03:25:28 03:28:39 18° 264° (W) 03:31:51 437.505
Cosmos 2491 18 Jan 03:29:35 03:37:45 45° 281° (W) 03:45:59 435.465 / 435.565
MOZHAYETS 4 18 Jan 03:42:56 03:47:18 46° 260° (W) 03:51:43
BEESAT 2 18 Jan 03:43:52 03:47:39 39° 247° (WSW) 03:51:24 435.950
ITAMSAT 1 18 Jan 03:46:26 03:51:36 67° 285° (WNW) 03:56:46 435.822/435.867
Cosmos 2504 18 Jan 03:55:26 04:01:39 31° 273° (W) 04:07:43 435.465 / 435.565
AUBIESAT-1 18 Jan 04:01:18 04:05:38 50° 255° (WSW) 04:09:46 437.475
STARS 18 Jan 04:07:35 04:11:38 39° 74° (ENE) 04:15:43 437.465
CUBESAT XI-V 18 Jan 04:20:53 04:25:27 56° 75° (ENE) 04:30:04 437.345
CUSAT 1 18 Jan 04:37:55 04:41:34 24° 289° (WNW) 04:46:04 437.405
KKS-1 18 Jan 04:43:11 04:47:04 30° 262° (W) 04:50:59 437.445
DANDE 18 Jan 05:01:18 05:04:22 45° 282° (WNW) 05:08:21 436.750
AO-7 18 Jan 05:03:01 05:10:38 41° 294° (WNW) 05:18:12 29.400- 29.500
AIST 2 18 Jan 05:17:18 05:21:02 30° 58° (ENE) 05:24:45 435.215
Cubesat XI-IV 18 Jan 05:22:07 05:23:47 11° 93° (E) 05:25:28 437.490
NOAA 15 18 Jan 05:38:58 05:42:48 20° 96° (E) 05:46:36 137.62
BRITE-PL 18 Jan 05:39:42 05:44:25 53° 286° (WNW) 05:48:46 437.365/2234.400
STARS 18 Jan 05:46:03 05:48:04 13° 265° (W) 05:50:05 437.465
ISS 18 Jan 05:48:15 05:50:13 15° 37° (NE) 05:52:11 145.825
HORYU 2 18 Jan 05:49:23 05:53:51 83° 102° (ESE) 05:58:18 437.375
GOMX 1 18 Jan 05:57:23 06:01:47 84° 102° (ESE) 06:05:58 467.674
O/OREOS (USA 219) 18 Jan 06:09:40 06:13:34 30° 103° (ESE) 06:17:27 437.305
CUTE-I 18 Jan 06:16:38 06:21:48 48° 100° (E) 06:26:56 437.470
Cosmos 2499 18 Jan 06:23:10 06:28:31 22° 75° (ENE) 06:33:49 435.465 / 435.565
LilacSat-2 18 Jan 06:23:36 06:27:28 75° 100° (E) 06:31:20 437.200
STRAND 1 18 Jan 06:38:41 06:43:30 46° 73° (ENE) 06:48:21 437.568
NOAA 18 18 Jan 06:41:43 06:46:53 43° 100° (E) 06:52:03 137.9125
DOVE 4 18 Jan 06:50:00 06:54:07 63° 284° (WNW) 06:58:12 437.250
AIST 2 18 Jan 06:56:25 06:59:15 18° 251° (WSW) 07:02:04 435.215
Cubesat XI-IV 18 Jan 06:58:52 07:04:08 63° 285° (WNW) 07:09:24 437.490
CINEMA 3 18 Jan 07:00:50 07:04:30 29° 98° (E) 07:08:16 145.822/145.860
NOAA 15 18 Jan 07:17:44 07:22:35 37° 288° (WNW) 07:27:25 137.62
ISS 18 Jan 07:23:45 07:26:47 36° 230° (SW) 07:29:48 145.825
HO-68 18 Jan 07:27:55 07:34:39 42° 100° (E) 07:41:18 435.675
CUTE 1.7 + AOD 2 18 Jan 07:29:29 07:33:26 35° 98° (E) 07:37:21 437.475
GONETS M04 18 Jan 07:35:43 07:44:33 72° 83° (E) 07:53:21
O/OREOS (USA 219) 18 Jan 07:49:53 07:52:56 18° 296° (WNW) 07:56:00 437.305
RS-15 18 Jan 07:53:11 08:02:54 26° 44° (NE) 08:12:17 29.354- 29.394
CANX-2 18 Jan 07:57:51 08:02:10 81° 282° (WNW) 08:06:26 2200.000
CUTE-I 18 Jan 07:58:11 08:01:23 16° 293° (WNW) 08:04:34 437.470
PHONESAT 2.4 18 Jan 08:03:12 08:05:21 32° 26° (NNE) 08:07:29 2401.200-2431.200
CUBEBUG 2 18 Jan 08:12:41 08:16:51 46° 100° (E) 08:21:10 437.445
SEEDS 18 Jan 08:14:26 08:18:42 87° 103° (ESE) 08:22:56 437.485
Cosmos 2499 18 Jan 08:15:06 08:21:46 45° 270° (W) 08:28:25 435.465 / 435.565
Oscar 11 18 Jan 08:18:05 08:20:23 14° 94° (E) 08:22:39 145.826/435.025
STRAND 1 18 Jan 08:20:04 08:22:49 15° 266° (W) 08:25:36 437.568
NOAA 18 18 Jan 08:23:28 08:27:09 19° 293° (WNW) 08:30:51 137.9125
COMPASS 1 18 Jan 08:24:51 08:29:03 73° 100° (E) 08:33:13 437.405
SO-50 18 Jan 08:31:50 08:36:32 63° 298° (WNW) 08:41:12 436.795
CINEMA 3 18 Jan 08:38:48 08:41:23 16° 289° (WNW) 08:44:01 145.822/145.860
AAUSAT CUBESAT 2 18 Jan 08:38:49 08:43:00 81° 102° (ESE) 08:47:09 437.432
UWE-3 18 Jan 08:46:25 08:50:47 74° 101° (ESE) 08:55:17 435.000/436.395/437.385
UNISAT 6 18 Jan 08:48:06 08:50:01 13° 69° (ENE) 08:51:57 437.425
FUNcube-1 18 Jan 08:49:37 08:53:45 40° 99° (E) 08:57:58 145.935
TIGRISAT 18 Jan 09:01:17 09:04:05 17° 70° (ENE) 09:06:54 435.000
CUTE 1.7 + AOD 2 18 Jan 09:06:36 09:08:54 14° 291° (WNW) 09:11:11 437.475
PRISM 18 Jan 09:08:11 09:12:20 79° 258° (WSW) 09:16:31 437.425
ZACube-1 18 Jan 09:10:59 09:15:22 84° 99° (E) 09:19:52 437.345
ANTELSAT 18 Jan 09:14:57 09:18:34 27° 73° (ENE) 09:22:11 437.575/2403.000
HO-68 18 Jan 09:16:04 09:22:02 29° 294° (WNW) 09:28:00 435.675
GONETS M04 18 Jan 09:34:56 09:40:23 18° 278° (W) 09:45:50
PHONESAT 2.4 18 Jan 09:38:01 09:39:21 14° 218° (SW) 09:40:41 2401.200-2431.200
JAS-2 18 Jan 09:38:41 09:41:55 17° 65° (ENE) 09:45:16 435.910
HUMSAT D 18 Jan 09:44:53 09:48:29 26° 97° (E) 09:52:04 437.325/437.525
CUBEBUG 2 18 Jan 09:51:36 09:53:04 11° 291° (WNW) 09:54:32 437.445
Oscar 11 18 Jan 09:52:35 09:56:33 35° 286° (WNW) 10:00:30 145.826/435.025
RS-15 18 Jan 10:04:35 10:16:54 85° 246° (WSW) 10:28:37 29.354- 29.394
DELFI C3 18 Jan 10:18:06 10:22:00 52° 284° (WNW) 10:25:50 145.870
UNISAT 6 18 Jan 10:22:22 10:26:21 38° 261° (W) 10:30:20 437.425
FUNcube-1 18 Jan 10:27:27 10:29:36 14° 291° (WNW) 10:31:47 145.935
TIGRISAT 18 Jan 10:36:53 10:40:32 27° 262° (W) 10:44:11 435.000
QB50P1 18 Jan 10:44:37 10:48:05 25° 72° (ENE) 10:51:32 145.935-145.965
POLYITAN 1 18 Jan 10:47:51 10:51:25 28° 73° (ENE) 10:55:01 437.675
QB50P2 18 Jan 10:48:50 10:52:33 31° 73° (ENE) 10:56:17 145.880/145.840
ANTELSAT 18 Jan 10:52:25 10:55:14 17° 264° (W) 10:58:02 437.575/2403.000
BY70-1 18 Jan 10:55:50 10:58:58 40° 99° (E) 11:01:55 436.1900
POPSAT HIP 1 18 Jan 11:10:34 11:14:40 54° 76° (ENE) 11:18:45 437.405
PCSat 18 Jan 11:11:16 11:16:42 85° 65° (ENE) 11:22:07 145.827
CUBEBUG 1 18 Jan 11:12:20 11:15:03 16° 95° (E) 11:17:45 437.445
HUMSAT D 18 Jan 11:20:49 11:23:51 19° 289° (WNW) 11:26:54 437.325/437.525
JAS-2 18 Jan 11:21:39 11:26:32 43° 261° (W) 11:31:44 435.910
AISAT 18 Jan 11:22:51 11:24:57 13° 94° (E) 11:27:04 437.250
DUCHIFAT 1 18 Jan 11:24:25 11:28:33 70° 77° (ENE) 11:32:42 145.980
NANOSAT C BR1 18 Jan 11:28:37 11:32:48 89° 60° (ENE) 11:37:00 145.865
ESTCUBE 1 18 Jan 11:32:39 11:37:07 57° 101° (E) 11:41:33 437.505/2401.250
50 SAT 18 Jan 11:41:53 11:43:37 13° 95° (E) 11:45:19 437.505
VELOX 1 18 Jan 11:54:47 11:58:42 32° 98° (E) 12:02:36 145.980
BUGSAT 1 18 Jan 12:08:53 12:12:59 82° 76° (ENE) 12:17:03 437.445
QB50P1 18 Jan 12:20:52 12:23:46 18° 264° (W) 12:26:40 145.935-145.965
RS-15 18 Jan 12:21:26 12:27:28 15° 262° (W) 12:33:26 29.354- 29.394
POLYITAN 1 18 Jan 12:24:33 12:27:11 16° 265° (W) 12:29:48 437.675
QB50P2 18 Jan 12:26:01 12:28:21 15° 265° (W) 12:30:42 145.880/145.840
DX 1 18 Jan 12:34:39 12:38:46 43° 100° (E) 12:42:52 434.975-435.025
Gurwin Techsat 1B 18 Jan 12:38:02 12:41:49 20° 68° (ENE) 12:45:36 435.225
UKube-1 18 Jan 12:38:42 12:42:35 33° 99° (E) 12:46:28 .
SPROUT 18 Jan 12:41:00 12:45:16 89° 285° (WNW) 12:49:31 437.525
Oscar 19 18 Jan 12:41:30 12:46:23 44° 73° (ENE) 12:51:18 437.125/150
CUBEBUG 1 18 Jan 12:47:33 12:51:18 30° 288° (WNW) 12:55:03 437.445
AISAT 18 Jan 12:57:27 13:01:29 37° 287° (WNW) 13:05:31 437.250
50 SAT 18 Jan 13:13:54 13:16:46 23° 287° (WNW) 13:19:37 437.505
JUGNU 18 Jan 13:20:53 13:24:07 15° 162° (SSE) 13:27:21 437.505
VELOX 1 18 Jan 13:32:07 13:34:51 16° 291° (WNW) 13:37:35 145.980
CUSAT 1 18 Jan 13:34:54 13:40:40 22° 70° (ENE) 13:46:06 437.405
Cosmos 2491 18 Jan 13:46:39 13:55:25 70° 83° (E) 14:04:12 435.465 / 435.565
YUBILEINY 18 Jan 13:46:47 13:54:31 36° 87° (E) 14:02:16 435.215
BEESAT 18 Jan 13:53:28 13:55:10 12° 94° (E) 13:56:52 436.000
SWISSCUBE 18 Jan 13:54:06 13:56:37 14° 95° (E) 13:59:08 437.505
DANDE 18 Jan 14:03:09 14:06:12 12° 69° (ENE) 14:09:17 436.750
AO-7 18 Jan 14:03:23 14:10:19 30° 63° (ENE) 14:17:15 29.400- 29.500
DX 1 18 Jan 14:12:51 14:14:30 12° 292° (WNW) 14:16:10 434.975-435.025
AO-85 18 Jan 14:14:49 14:19:43 85° 293° (WNW) 14:24:18 145.980
UKube-1 18 Jan 14:15:49 14:18:17 15° 291° (WNW) 14:20:46 .
Gurwin Techsat 1B 18 Jan 14:16:31 14:21:25 38° 261° (W) 14:26:21 435.225
TISAT 1 18 Jan 14:17:20 14:21:21 48° 285° (WNW) 14:25:22 437.305
Oscar 19 18 Jan 14:22:37 14:25:48 16° 265° (W) 14:28:59 437.125/150
Cosmos 2504 18 Jan 14:31:25 14:39:20 39° 88° (E) 14:46:55 435.465 / 435.565
AIST 1 18 Jan 14:38:51 14:43:08 53° 278° (W) 14:47:25
ITUPSAT 1 18 Jan 14:52:13 14:56:58 59° 101° (E) 15:01:42 437.325
ITAMSAT 1 18 Jan 14:58:13 15:03:23 82° 257° (WSW) 15:08:34 435.822/435.867
JUGNU 18 Jan 15:07:42 15:12:35 27° 171° (S) 15:17:29 437.505
CUSAT 1 18 Jan 15:15:14 15:23:08 65° 267° (W) 15:30:13 437.405
BEESAT 18 Jan 15:28:29 15:33:07 51° 286° (WNW) 15:37:44 436.000
SWISSCUBE 18 Jan 15:29:59 15:34:31 43° 286° (WNW) 15:39:01 437.505
DANDE 18 Jan 15:41:42 15:49:41 77° 82° (E) 15:58:01 436.750
YUBILEINY 18 Jan 15:43:02 15:51:03 39° 282° (WNW) 15:59:10 435.215
MOZHAYETS 4 18 Jan 15:43:36 15:48:13 65° 101° (E) 15:52:49
Cosmos 2491 18 Jan 15:45:49 15:51:18 19° 278° (W) 15:56:49 435.465 / 435.565
AUBIESAT-1 18 Jan 15:47:07 15:48:49 13° 100° (E) 15:50:31 437.475
AO-7 18 Jan 15:54:38 16:02:37 50° 258° (WSW) 16:10:42 29.400- 29.500
STARS 18 Jan 16:05:06 16:06:27 11° 94° (E) 16:07:48 437.465
CUBESAT XI-V 18 Jan 16:24:10 16:27:51 23° 96° (E) 16:31:29 437.345
Cosmos 2504 18 Jan 16:24:36 16:32:32 37° 281° (WNW) 16:40:10 435.465 / 435.565
O/OREOS (USA 219) 18 Jan 16:25:41 16:29:13 22° 65° (ENE) 16:32:46 437.305
ITUPSAT 1 18 Jan 16:32:58 16:34:13 11° 294° (WNW) 16:35:28 437.325
SRMSAT 18 Jan 16:33:18 16:37:35 20° 166° (SSE) 16:41:53 437.500
Cubesat XI-IV 18 Jan 16:39:02 16:40:35 11° 65° (ENE) 16:42:07 437.490
KKS-1 18 Jan 16:39:19 16:43:45 83° 103° (ESE) 16:48:10 437.445
M-CUBED/EXP-1 PRIME 18 Jan 16:41:30 16:44:45 55° 288° (WNW) 16:47:55 437.505
HORYU 2 18 Jan 16:41:34 16:45:32 34° 73° (ENE) 16:49:31 437.375
BRITE-PL 18 Jan 16:42:21 16:47:59 86° 74° (ENE) 16:53:42 437.365/2234.400
BEESAT 3 18 Jan 16:49:16 16:53:04 61° 298° (WNW) 16:56:57 437.485
NOAA 15 18 Jan 16:53:39 16:57:10 18° 67° (ENE) 17:00:41 137.62
JUGNU 18 Jan 16:55:58 17:01:09 32° 181° (S) 17:06:22 437.505
GOMX 1 18 Jan 16:57:59 17:03:15 49° 75° (ENE) 17:08:22 467.674
LilacSat-2 18 Jan 17:01:04 17:03:13 15° 71° (ENE) 17:05:22 437.200
SO-50 18 Jan 17:09:41 17:13:11 22° 55° (NE) 17:16:38 436.795
AUBIESAT-1 18 Jan 17:20:45 17:23:11 19° 292° (WNW) 17:25:36 437.475
DANDE 18 Jan 17:26:31 17:31:42 19° 274° (W) 17:37:02 436.750
BEESAT 2 18 Jan 17:29:19 17:33:07 52° 299° (WNW) 17:37:00 435.950
CUTE-I 18 Jan 17:32:33 17:37:33 44° 73° (ENE) 17:42:33 437.470
STARS 18 Jan 17:38:47 17:42:55 43° 286° (WNW) 17:47:03 437.465
DOVE 4 18 Jan 17:48:13 17:53:18 63° 76° (ENE) 17:58:10 437.250
HO-68 18 Jan 17:52:24 17:56:40 17° 62° (ENE) 18:00:55 435.675
CINEMA 3 18 Jan 17:57:58 18:00:23 14° 70° (ENE) 18:02:45 145.822/145.860
CUBESAT XI-V 18 Jan 18:01:15 18:05:05 26° 289° (WNW) 18:08:54 437.345
NOAA 18 18 Jan 18:01:59 18:07:13 47° 73° (ENE) 18:12:27 137.9125
O/OREOS (USA 219) 18 Jan 18:04:52 18:08:29 24° 258° (WSW) 18:12:06 437.305
Cubesat XI-IV 18 Jan 18:14:42 18:19:59 69° 258° (WSW) 18:25:17 437.490
CUTE 1.7 + AOD 2 18 Jan 18:18:17 18:19:54 12° 69° (ENE) 18:21:32 437.475
HORYU 2 18 Jan 18:19:37 18:22:06 15° 265° (W) 18:24:36 437.375
SRMSAT 18 Jan 18:21:06 18:26:17 30° 175° (S) 18:31:28 437.500
NOAA 15 18 Jan 18:31:34 18:36:32 42° 260° (W) 18:41:33 137.62
LilacSat-2 18 Jan 18:34:09 18:37:15 24° 263° (W) 18:40:22 437.200
GONETS M04 18 Jan 18:37:53 18:41:51 14° 80° (E) 18:45:49
GOMX 1 18 Jan 18:38:07 18:41:23 16° 266° (W) 18:44:38 467.674
CANX-2 18 Jan 18:44:43 18:48:26 31° 74° (ENE) 18:52:12 2200.000
JUGNU 18 Jan 18:44:58 18:49:43 25° 191° (S) 18:54:29 437.505
SO-50 18 Jan 18:49:46 18:53:33 27° 249° (WSW) 18:57:19 436.795
Cosmos 2499 18 Jan 18:51:45 18:58:25 26° 86° (E) 19:04:46 435.465 / 435.565
STRAND 1 18 Jan 18:55:37 18:59:54 26° 97° (E) 19:04:10 437.568
SEEDS 18 Jan 19:00:25 19:03:55 26° 72° (ENE) 19:07:26 437.485
CUBEBUG 2 18 Jan 19:06:08 19:08:57 18° 71° (ENE) 19:11:44 437.445
AIST 2 18 Jan 19:09:10 19:12:32 25° 111° (ESE) 19:15:56 435.215
COMPASS 1 18 Jan 19:10:08 19:13:19 21° 72° (ENE) 19:16:31 437.405
CUTE-I 18 Jan 19:14:21 19:17:41 17° 265° (W) 19:21:02 437.470
AAUSAT CUBESAT 2 18 Jan 19:23:25 19:26:42 23° 72° (ENE) 19:30:02 437.432
DOVE 4 18 Jan 19:30:21 19:31:08 10° 267° (W) 19:31:56 437.250
CINEMA 3 18 Jan 19:32:58 19:37:11 37° 261° (W) 19:41:16 145.822/145.860
HO-68 18 Jan 19:36:24 19:43:34 74° 256° (WSW) 19:50:47 435.675
UWE-3 18 Jan 19:38:08 19:41:35 26° 73° (ENE) 19:45:02 435.000/436.395/437.385
FUNcube-1 18 Jan 19:41:01 19:43:08 14° 70° (ENE) 19:45:17 145.935
NOAA 18 18 Jan 19:44:31 19:48:00 17° 265° (W) 19:51:28 137.9125
CUTE 1.7 + AOD 2 18 Jan 19:51:20 19:55:18 40° 261° (W) 19:59:19 437.475
ZACube-1 18 Jan 20:01:21 20:04:53 28° 73° (ENE) 20:08:26 437.345
SRMSAT 18 Jan 20:09:52 20:15:02 30° 185° (S) 20:20:12 437.500
CANX-2 18 Jan 20:21:51 20:24:18 15° 266° (W) 20:26:45 2200.000
GONETS M04 18 Jan 20:28:45 20:37:27 84° 275° (W) 20:46:14
STRAND 1 18 Jan 20:34:39 20:38:55 27° 290° (WNW) 20:43:12 437.568
JUGNU 18 Jan 20:35:41 20:38:12 13° 199° (SSW) 20:40:41 437.505
SEEDS 18 Jan 20:36:40 20:39:32 18° 265° (W) 20:42:24 437.485
Oscar 11 18 Jan 20:40:34 20:44:51 79° 77° (ENE) 20:49:11 145.826/435.025
CUBEBUG 2 18 Jan 20:41:49 20:45:21 26° 263° (W) 20:48:50 437.445
Cosmos 2499 18 Jan 20:42:42 20:51:04 52° 279° (W) 20:58:56 435.465 / 435.565
COMPASS 1 18 Jan 20:45:30 20:48:42 21° 264° (W) 20:51:56 437.405
AIST 2 18 Jan 20:47:51 20:50:55 20° 304° (NW) 20:54:02 435.215
PRISM 18 Jan 20:56:17 20:59:27 21° 97° (E) 21:02:36 437.425
DELFI C3 18 Jan 20:57:31 21:01:08 34° 74° (ENE) 21:04:48 145.870
AAUSAT CUBESAT 2 18 Jan 20:59:02 21:02:03 20° 264° (W) 21:05:06 437.432
UWE-3 18 Jan 21:15:16 21:17:59 17° 264° (W) 21:20:43 435.000/436.395/437.385
FUNcube-1 18 Jan 21:15:22 21:19:03 32° 262° (W) 21:22:46 145.935
ZACube-1 18 Jan 21:38:40 21:41:09 15° 265° (W) 21:43:38 437.345
SRMSAT 18 Jan 21:59:29 22:03:44 20° 195° (SSW) 22:07:58 437.500
HUMSAT D 18 Jan 22:04:42 22:08:42 58° 260° (W) 22:12:45 437.325/437.525
RS-15 18 Jan 22:10:14 22:18:51 25° 102° (ESE) 22:27:42 29.354- 29.394
UNISAT 6 18 Jan 22:19:10 22:23:36 67° 102° (ESE) 22:28:07 437.425
ISS 18 Jan 22:22:40 22:25:54 70° 316° (NW) 22:29:08 145.825
ESTCUBE 1 18 Jan 22:26:36 22:30:17 25° 71° (ENE) 22:34:00 437.505/2401.250
PRISM 18 Jan 22:31:31 22:34:34 21° 289° (WNW) 22:37:36 437.425
GONETS M04 18 Jan 22:32:28 22:35:24 12° 292° (WNW) 22:38:21
TIGRISAT 18 Jan 22:33:06 22:37:33 89° 287° (WNW) 22:42:06 435.000
DELFI C3 18 Jan 22:34:29 22:35:59 12° 266° (W) 22:37:31 145.870
BY70-1 18 Jan 22:34:52 22:37:37 68° 77° (ENE) 22:40:39 436.1900
JAS-2 18 Jan 22:35:02 22:41:46 37° 98° (E) 22:48:49 435.910
VELOX 1 18 Jan 22:47:30 22:49:53 14° 69° (ENE) 22:52:17 145.980
ANTELSAT 18 Jan 22:47:57 22:52:18 54° 284° (WNW) 22:56:44 437.575/2403.000
AO-85 18 Jan 22:53:53 22:55:43 13° 53° (NE) 22:57:34 145.980
POPSAT HIP 1 18 Jan 23:02:40 23:04:57 14° 95° (E) 23:07:13 437.405
DUCHIFAT 1 18 Jan 23:15:21 23:18:11 17° 96° (E) 23:21:01 145.980
NANOSAT C BR1 18 Jan 23:19:29 23:22:47 22° 97° (E) 23:26:05 145.865
DX 1 18 Jan 23:25:09 23:28:07 18° 70° (ENE) 23:31:05 434.975-435.025
SPROUT 18 Jan 23:28:37 23:32:20 30° 73° (ENE) 23:36:03 437.525
UKube-1 18 Jan 23:28:49 23:31:00 14° 68° (ENE) 23:33:12 .
CUBEBUG 1 18 Jan 23:36:27 23:40:52 81° 258° (WSW) 23:45:18 437.445
50 SAT 18 Jan 23:41:51 23:45:15 45° 76° (ENE) 23:48:41 437.505
AISAT 18 Jan 23:47:57 23:52:25 86° 77° (ENE) 23:56:52 437.250
BUGSAT 1 18 Jan 23:57:26 00:00:13 18° 96° (E) 00:03:00 437.445
ESTCUBE 1 19 Jan 00:03:29 00:06:58 22° 264° (W) 00:10:28 437.505/2401.250
PCSat 19 Jan 00:04:33 00:08:57 26° 107° (ESE) 00:13:22 145.827
YUBILEINY 19 Jan 00:08:23 00:10:37 11° 67° (ENE) 00:12:50 435.215
QB50P1 19 Jan 00:09:51 00:14:03 72° 284° (WNW) 00:18:15 145.935-145.965
POLYITAN 1 19 Jan 00:13:26 00:17:37 64° 284° (WNW) 00:21:49 437.675
QB50P2 19 Jan 00:14:40 00:18:48 56° 284° (WNW) 00:22:56 145.880/145.840
RS-15 19 Jan 00:18:20 00:30:01 74° 298° (WNW) 00:42:20 29.354- 29.394
JAS-2 19 Jan 00:19:59 00:26:33 38° 289° (WNW) 00:33:32 435.910
VELOX 1 19 Jan 00:21:49 00:25:58 38° 261° (W) 00:30:07 145.980
AO-85 19 Jan 00:32:38 00:36:12 35° 247° (WSW) 00:39:49 145.980
POPSAT HIP 1 19 Jan 00:36:58 00:40:44 32° 287° (WNW) 00:44:30 437.405
Cosmos 2491 19 Jan 00:49:05 00:52:56 14° 80° (E) 00:56:48 435.465 / 435.565
DUCHIFAT 1 19 Jan 00:50:16 00:53:47 26° 288° (WNW) 00:57:17 145.980
AIST 1 19 Jan 00:52:53 00:56:00 20° 78° (ENE) 00:59:05
NANOSAT C BR1 19 Jan 00:55:09 00:58:20 21° 289° (WNW) 01:01:31 145.865
Oscar 19 19 Jan 00:59:39 01:03:52 25° 97° (E) 01:08:04 437.125/150
DX 1 19 Jan 01:00:15 01:04:02 29° 262° (W) 01:07:50 434.975-435.025
Gurwin Techsat 1B 19 Jan 01:01:23 01:03:30 12° 93° (E) 01:05:36 435.225
TISAT 1 19 Jan 01:02:31 01:06:34 52° 75° (ENE) 01:10:38 437.305
UKube-1 19 Jan 01:02:39 01:06:40 37° 261° (W) 01:10:41 .
SPROUT 19 Jan 01:05:40 01:08:14 16° 265° (W) 01:10:48 437.525
BEESAT 3 19 Jan 01:13:34 01:15:06 12° 53° (NE) 01:16:37 437.485
